Weather History for Camden, SC

Change the Weather History Date:

Monday, May 5, 2014

  Actual Average (KSSC) Record (KSSC)
Temperature  
Mean Temperature 73 °F -  
Max Temperature 93 °F 77 °F 93 °F (2014)
Min Temperature 53 °F 55 °F 45 °F (2011)
Cooling Degree Days 8    
Growing Degree Days 23 (Base 50)    
Moisture  
Dew Point 54 °F    
Average Humidity 50    
Maximum Humidity 94    
Minimum Humidity 23    
Precipitation  
Precipitation 0.00 in - - ()
Sea Level Pressure  
Sea Level Pressure 29.94 in    
Wind  
Wind Speed 3 mph (WSW)    
Max Wind Speed 15 mph    
Max Gust Speed 22 mph    
Visibility 10 miles    
Events      
Averages and records for this station are not official NWS values.
T = Trace of Precipitation, MM = Missing Value Source: NWS Daily Summary

Daily Weather History Graph

Daily Weather History Graph

Search for Another Location

Airport:

Trip Planner

Search our weather history database for the weather conditions in past years. The results will help you decide how hot, cold, wet, or windy it might be!

Date:

Astronomy

May. 05, 2014 Rise Set
Actual Time 6:28 AM EDT 8:09 PM EDT
Civil Twilight 6:01 AM EDT 8:36 PM EDT
Nautical Twilight 5:29 AM EDT 9:09 PM EDT
Astronomical Twilight 4:54 AM EDT 9:43 PM EDT
Moon 11:46 AM EDT (5/5) 12:53 AM EDT (5/5)
Length of Visible Light 14h 35m
Length of Day
13h 41m
Waxing Crescent, 36% of the Moon is Illuminated
May 5
Waxing Crescent
May 6
First Quarter
May 14
Full
May 21
Last Quarter
May 28
New

Hourly Weather History & Observations

Time (EDT) Temp. Heat Index Dew Point Humidity Pressure Visibility Wind Dir Wind Speed Gust Speed Precip Events Conditions
12:15 AM 68.0 °F - 53.6 °F 60% 29.96 in 10.0 mi Calm Calm - N/A   Clear
12:35 AM 64.4 °F - 55.4 °F 73% 29.95 in 10.0 mi Calm Calm - N/A   Clear
12:55 AM 66.2 °F - 53.6 °F 64% 29.96 in 10.0 mi Calm Calm - N/A   Clear
1:15 AM 64.4 °F - 55.4 °F 73% 29.96 in 10.0 mi Calm Calm - N/A   Clear
1:35 AM 64.4 °F - 53.6 °F 68% 29.96 in 10.0 mi Calm Calm - N/A   Clear
1:55 AM 68.0 °F - 53.6 °F 60% 29.96 in 10.0 mi Calm Calm - N/A   Clear
2:15 AM 66.2 °F - 53.6 °F 64% 29.96 in 10.0 mi Calm Calm - N/A   Clear
2:35 AM 64.4 °F - 53.6 °F 68% 29.96 in 10.0 mi Calm Calm - N/A   Clear
2:55 AM 66.2 °F - 53.6 °F 64% 29.96 in 10.0 mi Calm Calm - N/A   Clear
3:15 AM 66.2 °F - 53.6 °F 64% 29.96 in 10.0 mi Calm Calm - N/A   Clear
3:35 AM 66.2 °F - 53.6 °F 64% 29.95 in 10.0 mi WSW 6.9 mph - N/A   Clear
3:55 AM 64.4 °F - 53.6 °F 68% 29.95 in 10.0 mi Calm Calm - N/A   Clear
4:15 AM 64.4 °F - 53.6 °F 68% 29.96 in 10.0 mi Calm Calm - N/A   Clear
4:35 AM 64.4 °F - 53.6 °F 68% 29.96 in 10.0 mi Calm Calm - N/A   Clear
4:55 AM 59.0 °F - 53.6 °F 82% 29.96 in 10.0 mi Calm Calm - N/A   Clear
5:15 AM 59.0 °F - 53.6 °F 82% 29.96 in 10.0 mi Calm Calm - N/A   Clear
5:35 AM 57.2 °F - 53.6 °F 88% 29.97 in 10.0 mi Calm Calm - N/A   Clear
5:55 AM 57.2 °F - 53.6 °F 88% 29.97 in 10.0 mi Calm Calm - N/A   Clear
6:15 AM 57.2 °F - 53.6 °F 88% 29.97 in 10.0 mi Calm Calm - N/A   Clear
6:35 AM 53.6 °F - 51.8 °F 94% 29.98 in 10.0 mi Calm Calm - N/A   Clear
6:55 AM 55.4 °F - 51.8 °F 88% 29.99 in 10.0 mi Calm Calm - N/A   Clear
7:15 AM 57.2 °F - 53.6 °F 88% 29.99 in 10.0 mi Calm Calm - N/A   Clear
7:35 AM 60.8 °F - 55.4 °F 82% 30.00 in 10.0 mi Calm Calm - N/A   Clear
7:55 AM 64.4 °F - 55.4 °F 73% 30.00 in 10.0 mi Calm Calm - N/A   Clear
8:15 AM 66.2 °F - 55.4 °F 68% 30.00 in 10.0 mi Calm Calm - N/A   Clear
8:35 AM 68.0 °F - 57.2 °F 68% 29.99 in 10.0 mi Calm Calm - N/A   Clear
8:55 AM 71.6 °F - 57.2 °F 60% 30.00 in 10.0 mi Calm Calm - N/A   Clear
9:15 AM 73.4 °F - 57.2 °F 57% 30.00 in 10.0 mi West 6.9 mph - N/A   Clear
9:35 AM 75.2 °F - 57.2 °F 53% 30.00 in 10.0 mi WNW 10.4 mph - N/A   Clear
9:55 AM 77.0 °F - 57.2 °F 50% 29.99 in 10.0 mi West 10.4 mph - N/A   Clear
10:15 AM 78.8 °F - 57.2 °F 47% 29.99 in 10.0 mi WNW 8.1 mph - N/A   Clear
10:35 AM 80.6 °F 80.8 °F 57.2 °F 45% 29.99 in 10.0 mi WNW 8.1 mph - N/A   Clear
10:55 AM 80.6 °F 80.8 °F 57.2 °F 45% 29.99 in 10.0 mi NW 9.2 mph - N/A   Clear
11:15 AM 82.4 °F 81.7 °F 55.4 °F 39% 29.99 in 10.0 mi NNW 5.8 mph - N/A   Clear
11:35 AM 84.2 °F 83.5 °F 57.2 °F 40% 29.99 in 10.0 mi WNW 4.6 mph - N/A   Clear
11:55 AM 84.2 °F 83.5 °F 57.2 °F 40% 29.99 in 10.0 mi NW 5.8 mph - N/A   Clear
12:15 PM 86.0 °F 84.2 °F 53.6 °F 33% 29.98 in 10.0 mi West 5.8 mph - N/A   Clear
12:35 PM 86.0 °F 84.2 °F 53.6 °F 33% 29.98 in 10.0 mi West 6.9 mph - N/A   Clear
12:55 PM 87.8 °F - 51.8 °F 29% 29.97 in 10.0 mi WSW 6.9 mph - N/A   Clear
1:15 PM 87.8 °F 85.7 °F 53.6 °F 31% 29.96 in 10.0 mi WSW 5.8 mph - N/A   Clear
1:35 PM 89.6 °F 87.3 °F 53.6 °F 29% 29.95 in 10.0 mi Calm Calm - N/A   Clear
2:15 PM 91.4 °F 89.1 °F 53.6 °F 28% 29.93 in 10.0 mi WSW 11.5 mph - N/A   Clear
2:35 PM 91.4 °F - 50.0 °F 24% 29.93 in 10.0 mi West 6.9 mph - N/A   Clear
2:55 PM 91.4 °F - 51.8 °F 26% 29.91 in 10.0 mi SW 5.8 mph 17.3 mph N/A   Clear
3:15 PM 91.4 °F - 50.0 °F 24% 29.91 in 10.0 mi WSW 9.2 mph 18.4 mph N/A   Clear
3:35 PM 93.2 °F - 50.0 °F 23% 29.90 in 10.0 mi WSW 8.1 mph - N/A   Clear
3:55 PM 93.2 °F - 50.0 °F 23% 29.89 in 10.0 mi SW 15.0 mph 18.4 mph N/A   Clear
4:15 PM 93.2 °F - 51.8 °F 24% 29.88 in 10.0 mi WSW 13.8 mph 18.4 mph N/A   Clear
4:35 PM 91.4 °F - 50.0 °F 24% 29.87 in 10.0 mi West 13.8 mph 21.9 mph N/A   Clear
4:55 PM 91.4 °F - 51.8 °F 26% 29.87 in 10.0 mi WSW 11.5 mph - N/A   Clear
5:15 PM 91.4 °F 89.1 °F 53.6 °F 28% 29.86 in 10.0 mi SW 10.4 mph 17.3 mph N/A   Clear
5:55 PM 91.4 °F - 51.8 °F 26% 29.86 in 10.0 mi WSW 11.5 mph - N/A   Clear
6:15 PM 91.4 °F 89.1 °F 53.6 °F 28% 29.87 in 10.0 mi SW 12.7 mph 17.3 mph N/A   Clear
6:35 PM 91.4 °F 89.1 °F 53.6 °F 28% 29.86 in 10.0 mi SW 10.4 mph - N/A   Clear
6:55 PM 89.6 °F 87.3 °F 53.6 °F 29% 29.87 in 10.0 mi SW 9.2 mph - N/A   Clear
7:15 PM 89.6 °F 87.3 °F 53.6 °F 29% 29.87 in 10.0 mi SW 10.4 mph 16.1 mph N/A   Clear
7:35 PM 87.8 °F 86.1 °F 55.4 °F 33% 29.87 in 10.0 mi SW 6.9 mph - N/A   Clear
7:55 PM 86.0 °F 84.5 °F 55.4 °F 35% 29.87 in 10.0 mi SW 5.8 mph - N/A   Clear
8:15 PM 86.0 °F 84.5 °F 55.4 °F 35% 29.87 in 10.0 mi SW 5.8 mph - N/A   Clear
8:35 PM 84.2 °F 83.0 °F 55.4 °F 37% 29.87 in 10.0 mi SW 5.8 mph - N/A   Clear
8:55 PM 82.4 °F 81.7 °F 55.4 °F 39% 29.87 in 10.0 mi SSW 3.5 mph - N/A   Clear
9:15 PM 82.4 °F 81.7 °F 55.4 °F 39% 29.87 in 10.0 mi SSW 6.9 mph - N/A   Clear
9:35 PM 82.4 °F 81.7 °F 55.4 °F 39% 29.87 in 10.0 mi SW 6.9 mph - N/A   Clear
9:55 PM 80.6 °F 80.5 °F 55.4 °F 42% 29.87 in 10.0 mi SW 10.4 mph - N/A   Clear
10:15 PM 80.6 °F 80.5 °F 55.4 °F 42% 29.88 in 10.0 mi SSW 6.9 mph - N/A   Clear
10:35 PM 78.8 °F - 55.4 °F 44% 29.88 in 10.0 mi SW 6.9 mph - N/A   Clear
10:55 PM 77.0 °F - 55.4 °F 47% 29.88 in 10.0 mi SW 8.1 mph - N/A   Clear
11:15 PM 77.0 °F - 55.4 °F 47% 29.88 in 10.0 mi SW 9.2 mph - N/A   Clear
11:35 PM 77.0 °F - 55.4 °F 47% 29.88 in 10.0 mi SW 9.2 mph - N/A   Clear